Location: Franzen
(48.6167°N, 15.3833°E)
Time: 17:29:23
(UTC+00:00)

Cosmos 2219 - Pass Details

Date: 02 August 2021
Orbit: 834 x 860 km, 71.1° (Epoch: 18 September)

Event Time Altitude Azimuth Distance (km) Brightness Sun altitude
Exits shadow 23:29:29 33° 247° (WSW) 1,407 4.1 -23.7°
Maximum altitude 23:31:46 52° 304° (NW) 1,063 3.8 -23.6°
Drops below altitude 10° 23:37:24 10° 21° (NNE) 2,507 6.7 -23.5°
Sets 23:39:57 0° 26° (NNE) 3,447 7.6 -23.4°
